PST,Max TemperatureF,Mean TemperatureF,Min TemperatureF,Max Dew PointF,MeanDew PointF,Min DewpointF,Max Humidity, Mean Humidity, Min Humidity, Max Sea Level PressureIn, Mean Sea Level PressureIn, Min Sea Level PressureIn, Max VisibilityMiles, Mean VisibilityMiles, Min VisibilityMiles, Max Wind SpeedMPH, Mean Wind SpeedMPH, Max Gust SpeedMPH,PrecipitationIn, CloudCover, Events, WindDirDegrees
2013-1-1,38,35,32,24,22,20,64,59,54,30.46,30.42,30.37,10,10,10,31,22,41,0.00,0,,84
2013-1-2,40,37,34,23,21,20,61,55,48,30.37,30.31,30.25,10,10,10,31,22,43,0.00,0,,80
2013-1-3,39,36,32,28,23,19,87,64,48,30.28,30.22,30.17,10,9,5,31,22,41,0.00,4,Rain,81
2013-1-4,39,36,32,31,28,24,89,77,64,30.36,30.28,30.19,10,8,2,30,22,39,T,5,Rain,86
2013-1-5,36,35,34,28,27,24,82,73,64,30.25,30.21,30.18,10,9,7,31,21,40,T,7,Rain,84
2013-1-6,39,37,34,35,32,28,92,84,75,30.26,30.19,30.09,10,9,5,21,10,29,0.11,8,Rain,85
2013-1-7,53,46,38,47,43,35,92,85,77,30.22,30.11,30.00,10,9,5,22,8,29,0.19,8,Rain,210
2013-1-8,56,50,44,47,45,42,93,80,66,30.20,30.08,29.93,10,8,2,22,9,31,0.17,8,Rain,182
2013-1-9,54,45,35,44,38,34,89,79,68,29.99,29.90,29.72,10,9,3,22,7,29,0.28,6,Rain,213
2013-1-10,40,37,34,36,34,32,85,82,79,30.11,30.07,29.99,10,9,5,9,2,10,0.10,8,Rain,246
2013-1-11,40,34,27,32,30,25,96,78,59,30.32,30.21,30.11,10,7,2,7,2,8,0.00,5,,234
2013-1-12,39,32,25,29,26,23,92,76,59,30.42,30.36,30.32,10,7,0,9,1,10,0.00,4,Fog,257
2013-1-13,35,30,24,27,23,21,92,81,69,30.51,30.47,30.42,10,9,4,8,2,12,0.00,4,,153
2013-1-14,34,31,28,32,28,24,96,87,78,30.58,30.55,30.51,10,4,1,7,0,7,T,8,Rain-Snow,140
2013-1-15,39,37,34,34,33,32,100,90,79,30.67,30.63,30.58,10,4,1,7,2,14,0.00,8,,268
2013-1-16,38,35,32,34,33,30,92,87,82,30.66,30.57,30.51,10,8,3,6,1,7,0.00,8,,85
2013-1-17,41,34,27,30,28,25,92,76,60,30.50,30.42,30.33,10,9,2,20,8,26,0.00,1,,89
2013-1-18,45,37,28,31,28,25,85,72,58,30.33,30.30,30.27,10,9,4,18,9,24,0.00,0,,95
2013-1-19,44,35,25,32,27,23,92,76,60,30.35,30.33,30.28,10,4,0,21,6,26,0.00,2,Fog,278
2013-1-20,40,33,26,30,25,23,92,78,64,30.37,30.32,30.24,10,4,0,35,15,45,0.00,4,Fog,307
2013-1-21,38,35,32,25,24,23,72,66,59,30.27,30.20,30.16,10,10,9,35,25,45,0.00,0,,87
2013-1-22,37,34,31,24,23,21,72,66,59,30.16,30.06,29.95,10,10,10,32,22,45,0.00,0,,81
2013-1-23,34,33,32,31,26,21,89,75,61,30.22,30.02,29.91,10,7,2,31,17,40,0.12,7,Rain,87
2013-1-24,46,40,33,38,34,30,96,81,65,30.25,30.18,30.11,10,5,2,20,9,25,0.26,7,Rain,87
2013-1-25,44,41,38,40,37,36,92,89,85,30.15,30.05,29.97,10,6,1,17,8,23,0.16,7,Rain,81
2013-1-26,47,43,38,40,38,36,92,82,71,30.09,30.00,29.96,10,10,9,15,5,20,0.05,8,Rain,161
2013-1-27,45,43,40,39,37,37,86,81,76,30.15,30.09,30.05,10,10,5,17,5,21,0.18,8,Rain,220
2013-1-28,45,43,41,41,39,37,89,86,83,30.20,30.15,30.09,10,8,4,18,7,23,0.96,8,Rain,237
2013-1-29,48,46,44,45,43,41,93,87,80,30.46,30.34,30.19,10,7,2,16,10,23,0.54,8,Rain,220
2013-1-30,50,48,45,46,44,41,92,87,82,30.46,30.44,30.42,10,5,2,16,7,22,0.42,8,Rain,224
2013-1-31,53,49,44,46,44,42,100,89,77,30.45,30.41,30.34,10,7,1,6,1,7,0.01,8,Rain,27